FW7892 Weather Reports


time (UTC)temp
C
wind
direction
speed
KPH
gust
KPH
rain 1hr
cm
rain 24hr
cm
rain mn
cm
humidity
%
barometer
mb
20260508100206 20 255 0.0 1.6 0.00 0.00 0.00 87 1012.8
20260508095210 20 283 0.0 1.6 0.00 0.00 0.00 82 1012.4
20260508091213 20 313 0.0 0.0 0.00 0.00 0.00 99 1012.4
20260508090212 21 313 0.0 0.0 0.00 0.00 0.00 99 1012.5
20260508085213 21 312 0.0 1.6 0.00 0.00 0.00 98 1012.5
20260508084212 21 292 0.0 1.6 0.00 0.00 0.00 98 1012.6
20260508083205 21 255 0.0 1.6 0.00 0.00 0.00 98 1012.6
20260508081203 22 244 0.0 1.6 0.00 0.00 0.00 98 1013.0
20260508070207 21 243 0.0 0.0 0.00 0.00 0.00 97 1013.0
20260508064203 21 315 0.0 0.0 0.00 0.00 0.00 97 1013.6
20260508062205 21 294 0.0 1.6 0.00 0.00 0.00 97 1013.6
20260508060216 21 247 0.0 1.6 0.00 0.00 0.00 96 1013.7
20260508054207 21 212 0.0 1.6 0.00 0.00 0.00 96 1014.1
20260508052209 21 214 0.0 3.2 0.00 0.00 0.00 95 1014.3
20260508051213 21 242 0.0 3.2 0.00 0.00 0.00 95 1014.4
20260508050211 21 245 0.0 3.2 0.00 0.00 0.00 95 1014.5
20260508043211 22 233 0.0 1.6 0.00 0.00 0.00 94 1015.0
20260508042209 22 239 0.0 1.6 0.00 0.00 0.00 88 1015.1
20260508034209 23 265 0.0 1.6 0.00 0.00 0.00 92 1015.4
20260508032213 23 242 1.6 4.8 0.00 0.00 0.00 90 1015.3
20260508030207 23 241 1.6 4.8 0.00 0.00 0.00 88 1015.1
20260508025215 23 243 1.6 4.8 0.00 0.00 0.00 87 1015.1
20260508023213 24 248 1.6 3.2 0.00 0.00 0.00 85 1015.1
20260508015213 25 330 0.0 1.6 0.00 0.00 0.00 64 1015.1
20260508014210 26 253 0.0 1.6 0.00 0.00 0.00 69 1015.0
20260508013205 26 270 0.0 3.2 0.00 0.00 0.00 74 1015.0
20260508012211 26 315 1.6 4.8 0.00 0.00 0.00 72 1014.9
20260508011209 26 314 3.2 8.0 0.00 0.00 0.00 71 1014.9
20260508002205 28 312 8.0 16.1 0.00 0.00 0.00 63 1014.7
20260508001205 28 312 8.0 16.1 0.00 0.00 0.00 61 1014.7
20260507235205 29 257 8.0 20.9 0.00 0.00 0.00 57 1014.7
20260507234212 30 265 8.0 20.9 0.00 0.00 0.00 46 1014.6
20260507232214 31 197 6.4 14.5 0.00 0.00 0.00 50 1014.4
20260507231210 30 164 9.7 14.5 0.00 0.00 0.00 51 1014.5
20260507225205 30 184 8.0 14.5 0.00 0.00 0.00 52 1014.5
20260507222205 31 184 8.0 12.9 0.00 0.00 0.00 44 1014.3
20260507220206 31 190 4.8 11.3 0.00 0.00 0.00 45 1014.3
20260507215206 31 223 4.8 14.5 0.00 0.00 0.00 44 1014.2
20260507213212 31 203 4.8 11.3 0.00 0.00 0.00 43 1014.4
20260507211209 32 210 8.0 16.1 0.00 0.00 0.00 54 1014.3
20260507204214 31 189 4.8 16.1 0.00 0.00 0.00 45 1014.4
20260507193212 30 194 4.8 14.5 0.00 0.00 0.00 65 1015.2
20260507192213 30 188 4.8 14.5 0.00 0.00 0.00 60 1015.2
20260507191208 30 212 6.4 12.9 0.00 0.00 0.00 61 1015.5
20260507190208 30 195 8.0 14.5 0.00 0.00 0.00 61 1015.4
20260507185212 30 203 4.8 14.5 0.00 0.00 0.00 63 1015.7
20260507183204 30 170 4.8 12.9 0.00 0.00 0.00 66 1015.7
20260507182208 30 151 4.8 9.7 0.00 0.00 0.00 67 1015.4
20260507181215 30 95 1.6 9.7 0.00 0.00 0.00 66 1014.9
20260507180208 30 70 1.6 3.2 0.00 0.00 0.00 67 1015.4
20260507172207 29 41 0.0 1.6 0.00 0.00 0.00 89 1015.2
20260507171208 29 143 0.0 1.6 0.00 0.00 0.00 68 1015.5
20260507170206 29 72 1.6 1.6 0.00 0.00 0.00 68 1015.1
20260507165207 28 82 1.6 1.6 0.00 0.00 0.00 68 1015.4
20260507163212 19 54 1.6 1.6 0.00 0.00 0.00 89 1015.6
20260507162211 28 55 1.6 3.2 0.00 0.00 0.00 97 1015.6
20260507161214 28 56 1.6 3.2 0.00 0.00 0.00 80 1015.8
20260507160209 28 38 1.6 3.2 0.00 0.00 0.00 68 1016.2
20260507155211 28 34 1.6 3.2 0.00 0.00 0.00 70 1015.7
20260507154207 28 105 0.0 3.2 0.00 0.00 0.00 72 1015.9
20260507151204 27 136 1.6 3.2 0.00 0.00 0.00 75 1016.3
20260507150207 27 127 1.6 3.2 0.00 0.00 0.00 75 1016.1
20260507145206 27 121 1.6 1.6 0.00 0.00 0.00 76 1016.5
20260507142208 23 106 0.0 1.6 0.00 0.00 0.00 78 1016.1
20260507134214 26 44 0.0 1.6 0.00 0.00 0.00 81 1015.9
20260507133210 26 2 0.0 1.6 0.00 0.00 0.00 83 1015.9
20260507131205 25 320 0.0 1.6 0.00 0.00 0.00 87 1015.6
20260507130213 24 307 0.0 1.6 0.00 0.00 0.00 89 1015.7
20260507125204 24 308 0.0 3.2 0.00 0.00 0.00 90 1015.5
20260507124215 23 308 0.0 3.2 0.00 0.00 0.00 92 1015.2
20260507123206 22 308 0.0 3.2 0.00 0.00 0.00 94 1014.8
20260507121211 21 0 0.0 1.6 0.00 0.00 0.00 97 1013.9
20260507120205 21 0 0.0 1.6 0.00 0.00 0.00 98 1013.7
20260507114208 20 0 0.0 0.0 0.00 0.00 0.00 98 1014.4
20260507113210 20 0 0.0 0.0 0.00 0.00 0.00 98 1014.7
20260507112212 19 274 0.0 0.0 0.00 0.00 0.00 98 1014.4
20260507110208 18 282 0.0 1.6 0.00 0.00 0.00 90 1014.8